Terminal Aerodrome Forecast
Issued by NWS Billings, MT

Home | Current Version | Previous Version | Text Only | Print | Product List | Glossary Off
Versions: 1 2 3 4 5 6 7 8 9 10 11 12 13

000
FTUS45 KBYZ 291120
TAFMLS
TAF
KMLS 291120Z 2912/3012 04010KT P6SM FEW120
     FM291500 09010KT P6SM FEW090=

USA.gov is the U.S. government's official web portal to all federal, state and local government web resources and services.